Retour au catalogue

QIANFAN-36

ActifCommunicationsPO
NORAD 61569·PAYLOAD·🇨🇳 China

Lancé Oct 15, 2024 depuis Taiyuan Satellite Launch Center

Loading…

Prochains Passages (prochaines 24 heures)

TLE

FraisSource: Space-Track

Époque: Sep 14, 2026, 20:50 UTC

1 61569U 24185T   26257.86813585  .00000072  00000-0  86089-4 0  9997
2 61569  88.9791  52.2680 0005217 336.0055  24.0855 13.55646865105336

Suivez QIANFAN-36 en temps réel avec AllMySat

Download on the App Store